Погода в Северном

Россия / Костромская область     58°02′00″N   41°26′01″E
темп.,
°C
ветер,
м/с
пор.,
м/с
влажн.,
%
обл.,
%
осадки,
мм/ч
давл.,
гПа
погр.,
м
12 мая, ср
ср1200:00+9вюв22765 0.0 102932
03:00+8в11875 0.0 102911
06:00+12в12834 0.0 102967
09:00+18в23650 0.0 1028491
12:00+22в34521 0.0 10271026
15:00+23в454686 0.0 10251529
18:00+21в37614 0.0 1024437
21:00+15в3108676 0.1 1023187
13 мая, чт
чт1300:00+13юв259383 0.1 102481
03:00+14вюв288343 0.1 1024214
06:00+14вюв28844 0.0 1024313
09:00+19юв48610 0.0 1023948
12:00+21юв596028 0.4 10211496
15:00+23юв595012 0.9 10191799
18:00+18юв61370100 0.5 10181093
21:00+15юв5118554 0.5 1017830
14 мая, пт
пт1400:00+14юв3991100 0.0 1016477
03:00+12ю389991 0.1 1017280
06:00+12юз388720 0.0 1018398
09:00+14ююз37660 0.0 1019614
12:00+19ююз474910 0.0 10181405
15:00+19ююз4746100 0.0 10181444
18:00+18ююз25616 0.0 1017507
21:00+13вюв11835 0.0 101711
15 мая, сб
сб1500:00+12вюв2291100 0.2 101635
03:00+13в3599100 5.2 1015115
06:00+14вюв41196100 0.0 1014373
09:00+20ююв4879100 0.0 1013598
12:00+22ююв3671100 1.9 1012800
15:00+22ююв4877100 6.8 1010765
18:00+16сз2697100 9.9 1011303
21:00+15юв279822 10.8 1010163
16 мая, вс
вс1600:00+15ю4129699 0.0 1010387
03:00+14ю31097100 0.0 1010306
06:00+15ю4119581 0.0 1010557
09:00+18ююз59759 0.0 1011912
12:00+19юз687125 0.3 10121232
15:00+17зюз587599 0.4 10131096
18:00+17з38761 0.1 1014941
21:00+13юз25950 0.1 101590